Regional Weather Roundup
Issued by NWS Green Bay, WI

Home | Current Version | Previous Version | Graphics & Text | Print | Product List | Glossary Off
Versions: 1 2 3 4 5 6 7 8 9 10 11 12 13 14 15 16 17 18 19 20 21 22 23 24 25 26 27 28 29 30 31 32 33 34 35 36 37 38 39 40 41 42 43 44 45 46 47 48 49 50

609
ASUS43 KGRB 280911
RWRGRB

NORTH-CENTRAL AND NORTHEAST WISCONSIN REGIONAL WEATHER ROUNDUP
NATIONAL WEATHER SERVICE GREEN BAY WI
400 AM CDT WED JUN 28 2017

WIZ005-009-010>012-018-019-281000-
NORTH CENTRAL WISCONSIN

CITY           SKY/WX    TMP DP  RH WIND       PRES   REMARKS
IRONWOOD       CLEAR     57  47  69 S10       29.80F
MANITOWISH WTR CLEAR     55  48  77 S8        29.83F
ARBOR VITAE    CLEAR     57  48  72 S9        29.84S
EAGLE RIVER    CLEAR     51  45  79 CALM      29.86S
LAND O LAKES   CLEAR     47  46  97 CALM      29.87F
RHINELANDER    CLEAR     55  47  74 S7        29.87F
PHILLIPS       CLOUDY    56  47  71 S9        29.84R
ANTIGO         CLEAR     50  47  88 S7        29.90S
TOMAHAWK       NOT AVBL
MERRILL        CLEAR     49  48  97 CALM      29.89R
$$

WIZ013-073-281000-
NORTHEAST WISCONSIN

CITY           SKY/WX    TMP DP  RH WIND       PRES   REMARKS
IRON MOUNTAIN  CLEAR     52  46  80 SE6       29.86F
MARINETTE      CLEAR     59  53  80 SW6       29.90F
OCONTO         CLEAR     52  50  93 CALM      29.89F
$$

WIZ017-030-035>037-045-281000-
CENTRAL WISCONSIN

CITY           SKY/WX    TMP DP  RH WIND       PRES   REMARKS
MEDFORD        CLEAR     54  47  77 S10       29.85F
WAUSAU           N/A    N/A N/A N/A MISG      29.87F
MOSINEE        CLEAR     52  46  82 SE6       29.89F
MARSHFIELD     CLOUDY    54  48  80 S7        29.86F
WISC RAPIDS    CLOUDY    55  47  74 S5        29.89F
STEVENS POINT  CLEAR     56  46  69 S9        29.89F
WAUPACA        CLEAR     54  51  89 CALM      29.91F
SHAWANO        CLEAR     57  50  77 CALM      29.89F
CLINTONVILLE   CLEAR     50  46  87 S5        29.90F
WAUTOMA        CLEAR     48  47  96 MISG      29.92S
$$

WIZ038-039-048-051-281000-
FOX VALLEY

CITY           SKY/WX    TMP DP  RH WIND       PRES   REMARKS
NWS GREEN BAY  CLEAR     57  51  80 S6        29.91F
APPLETON       CLEAR     55  45  67 S9        29.91S
OSHKOSH        CLEAR     53  48  83 S6        29.93S
FOND DU LAC    CLEAR     58  46  64 S7        29.93F
$$

WIZ022-050-052-281000-
EAST CENTRAL WISCONSIN

CITY           SKY/WX    TMP DP  RH WIND       PRES   REMARKS
EPHRAIM        FAIR      57  48  70 S3        29.90F
WASHINGTON ISL CLOUDY    59  49  69 CALM      29.90F
STURGEON BAY   NOT AVBL
MANITOWOC      CLEAR     57  48  72 S7        29.94F
SHEBOYGAN      CLEAR     50  49  96 CALM      29.95S
$$

LMZ563-521-522-541>543-281000-
LAKESHORE

STATION/POSITION TIME  TEMP    WIND        PRES    VSBY  WAVE
                       AIR SEA DIR/SP/G                  HT/PER
                 (UTC) (F)     (DEG/KT/KT) (MB)    (MI)  (FT/S)
SHEBOYGAN LKSHOR 0900   58     190/  9/ 10 1014.1R
KEWAUNEE LKSHORE 0842   53     190/  6/  7 1012.9F
ALGOMA MARINA    0902   54     200/  1/  4   N/A
NORTHPORT PIER   0840   59     170/  2/  4 1012.5F
N MID LAKE BUOY  0850   58 56  190/ 12/ 14 1013.6F         3/ 5
S GREEN BAY BUOY 0900   65     190/ 14/ 17 1012.1
SISTER BAY LKSHO 0823   62     150/ 10/ 11   N/A
CHAMBERS ISLAND  0840   63     170/  5/  8 1011.9F
MENOMINEE LKSHOR 0836          180/  5/  7 1011.5F
$$




USA.gov is the U.S. government's official web portal to all federal, state and local government web resources and services.